Location: Schommer Observatory
(40.5200°N, 74.4500°W)
Time: 02:22:41
(UTC-04:00)

ISS - Pass Details

Date: 21 May 2018
Orbit: 402 x 407 km, 51.6° (Epoch: 26 May)

Event Time Altitude Azimuth Distance (km) Brightness Sun altitude
Rises 04:09:24 0° 307° (NW) 2,318 -0.1 -14.2°
Reaches altitude 10° 04:11:30 10° 309° (NW) 1,456 -1.1 -14.0°
Maximum altitude 04:14:45 75° 36° (NE) 419 -3.7 -13.5°
Drops below altitude 10° 04:18:00 10° 122° (ESE) 1,449 -0.8 -13.0°
Sets 04:20:04 0° 124° (SE) 2,306 0.2 -12.7°
